Погода Алтай

Погода Алтай : погода сейчас, прогноз погоды и архив. Всё, что Вы хотите узнать о погоде Алтай!

Поиск расширенной информации на нашем сайте:

Другие новости

Новости СМИ2

Главная страница сайта

Новости сайта

03.07.2017

Напоминаем, что на нашем специализированном сайте Метеоцентр.Азия вы можете получить высокодетализированные автоматические прогнозы погоды по пунктам России, СНГ и мира в авиационном формате (включающие направление и скорость ветра, видимость, явления погоды, количество и форму облачности, нижнюю и верхнюю границу облачности).

Рекомендуем: купить офис в бизнес центре хамовническая слобода

Погода Алтай - сегодня

Время (UTC), дата Ветер
(°,м/с) 
Видим.   Явления Облачность Т
(°С)
Тd
(°С)
f(%) Тe
(°С)
Pmin
(гПа)
dP
(гПа)
Po
(мм)
O2
(г/м3)
Тmin Tmax R s Состояние
почвы
03 18.11.17 230 (ЮЗ) 20000 м  {ливн. осадки}  10/10 600 м кучево-дожд. 
[Cb calv]
-4.9 -5.5 96 -6  1013.6  0.1  757  311  -5    0.2  12  равномерный
сухой снег
100% 
06 18.11.17 240 (ЮЗ) н/о    н/о 
-4.7 -6.1 90 -4  1013.7  0.1  757  311  -5         
09 18.11.17 220 (ЮЗ) 20000 м    10/10 600 м кучево-дожд. 
[Cb calv]
-3.9 -5.5 89 -5  1013.7  0.1  757  310           
12 18.11.17 280 (З) н/о    н/о 
-4.1 -5.9 87 -5  1014.3  0.6  758  311           
15 18.11.17 320 (СЗ) 20000 м  в посл. час ливневой снег  10/10 600 м кучево-дожд. 
[Cb calv]
-5.8 -7.2 90 -8  1015.2  0.8  758  313    -3.8  0.6     
18 18.11.17 300 (СЗ) 20000 м  {ливн. осадки}  10/10 600 м кучево-дожд. 
[Cb calv]
-7.1 -8.1 93 -9  1015.9  0.7  759  315           
21 18.11.17 220 (ЮЗ) 4000 м  слаб. ливневой снег  10/10 600 м кучево-дожд. 
[Cb calv]
-6.5 -7.4 93 -6  1016.2  0.3  759  314           
00 19.11.17 210 (ЮЗ) 20000 м  {ливн. осадки}  10/10 600 м кучево-дожд. 
[Cb calv]
-5.7 -6.8 92 -5  1016.4  0.2  759  313           
03 19.11.17 180 (Ю) 20000 м  {ливн. осадки}  10/10 600 м кучево-дожд. 
[Cb calv]
-5.5 -6.5 93 -7  1016.5  0.1  759  313  -7.1    0.4  12  равномерный
сухой снег
100% 
06 19.11.17 190 (Ю) н/о    н/о 
-4.7 -6 91 -6  1016.8  0.3  759  312           
09 19.11.17 200 (Ю) 20000 м  в посл. час ливневой снег  10/10 600 м кучево-дожд. 
[Cb calv]
-3.6 -5 90 -5  1017.6  0.9  760  311           
12 19.11.17 220 (ЮЗ) н/о    н/о 
-2.9 -4 92 -4  1019.2  1.6  761  311           
15 19.11.17 260 (З) 20000 м  {ливн. осадки}  10/10 600 м кучево-дожд. 
[Cb calv]
-1.4 -2.3 94 -2  1020.1  0.9  762  309    -1.4  0.7     
18 19.11.17 250 (З) 20000 м    10/10 600 м кучево-дожд. 
[Cb calv]
-2 -2.9 94 -4  1020.6  0.5  762  310           
21 19.11.17 220 (ЮЗ) 20000 м    10/10 600 м кучево-дожд. 
[Cb calv]
-3.9 -4.5 96 -6  1021.4  0.7  763  312           
00 20.11.17 230 (ЮЗ) 20000 м    10/10 600 м 
[Sc]
-3.4 -4.2 94 -6  1021.7  0.3  763  312           
03 20.11.17 220 (ЮЗ) 20000 м    10/10 600 м 
[Sc]
-2.4 -3.3 94 -3  1021.7  763  311  -4.1      12  равномерный
сухой снег
100% 
06 20.11.17 230 (ЮЗ) н/о    н/о 
-1.5 -2.3 94 -2  1022  0.3  763  310           
09 20.11.17 230 (ЮЗ) 20000 м  в посл. час ливневой снег  10/10 600 м кучево-дожд. 
[Cb calv]
-0.4 -1.4 93 -1  1022.1  0.2  764  308           
12 20.11.17 260 (З) н/о    н/о 
-0.3 -1 95 -2  1022.7  0.6  764  308           
15 20.11.17 230 (ЮЗ) 20000 м  {ливн. осадки}  10/10 600 м кучево-дожд. 
[Cb calv]
-0.3 -1.5 92 -1  1023.1  0.4  764  308    -0.1  0.4     
18 20.11.17 230 (ЮЗ) 20000 м  {ливн. осадки}  10/10 600 м 
[Sc]
-0.4 -1.7 91 -1  1023.1  0.1  764  309           
21 20.11.17 220 (ЮЗ) 20000 м    10/10 600 м 
[Sc]
-0.8 -3.2 84 -3  1022.7  -0.3  764  309           
00 21.11.17 200 (Ю) 20000 м    10/10 600 м 
[Sc]
-1.5 -3 89 -3  1020.7  -2  762  309           
03 21.11.17 220 (ЮЗ) 3{10}  2000 м  ливневой снег  10/10 600 м кучево-дожд. 
[Cb calv]
-1.2 -1.9 95 -3  1019.1  -1.6  761  308  -1.6    0.5  13  равномерный
сухой снег
100% 
Время (UTC), дата Ветер
(°,м/с) 
Видим.   Явления Облачность Т
(°С)
Тd
(°С)
f(%) Тe
(°С)
Pmin
(гПа)
dP
(гПа)
Po
(мм)
O2
(г/м3)
Тmin Tmax R s Состояние
почвы

Для получения пояснительной информации подведите курсор к названию столбца.

ПОГОДА Алтай - архив

Всё, что Вы хотите узнать о погоде Алтай - удобно и подробно!

Выберите нужную дату (начиная с 1 января 2015* года) и нажмите кнопку "Найти".
Будут отображены архивные сводки погоды по пункту Алтай, начиная с указанной даты.


Отображать данные в формате CSV (для использования в таблицах Excel)


Внимание! Наш архив погоды предназначен исключительно для личного некоммерческого использования в познавательных целях. Если Вам необходимы официальные справки о состоянии погоды (для производственных, юридических, коммерческих и т.п. целей), обращайтесь в органы Росгидромета.

*Примечание: данная дата относится к архиву по метеостанциям СССР (Россия, СНГ, Балтия).
Архив по метеостанциям Зарубежной Европы и Азии (кроме Китая) хранится 10 дней, по другим регионам земного шара (Китай, Африка, Америка, Австралия, Океания) - 1 день.

Алтай - район местоположения метеостанции


Название, широта, долгота, высота метеостанции:
Алтай 60.3°ш. 68.9°д. 30 м над ур. моря [Российская Федерация]

Дополнительная информация

В oтличие oт бoльшинства пoгoдных сайтoв мы публикуем пoдрoбную метеoинфoрмацию в детальнoм прoфессиoнальнoм фoрмате.

Характеристики температуры и влажнoсти вoздуха измеряются на высoте 2 м в тени вдали oт зданий и деревьев.
Скoрoсть ветра измеряется на высoте 10 м (на урoвне рoста челoвека скoрoсть ветра ниже в 1.5-2 раза). Если метеoстанция нахoдится в гoрoде или в лесу, тo скoрoсть ветра занижена на 2-4 м/с пo сравнению с oткрытым местoм. Скoрoсть ветра над акватoриями крупных рек и oзёр, а также на вершинах хoлмoв на 2-5 м/с выше, чем в oбычных услoвиях.
Атмoсфернoе давление в разных тoчках местнoсти мoжет значительнo oтличаться oт давления на метеoстанции, в зависимoсти oт услoвий рельефа (при пoдъёме на 10 м давление пoнижается примернo на 1 мм рт.ст.).